When you browse on this site, cookies collect data to enhance your experience and personalize the content and advertising you see.
Visit our Privacy Policy to learn more. By continuing to use the site, you agree to this use of cookies and data.
  • In Schweiz
  • Länderverzeichnis
  • Für 7 Tage
  • Wassertemperatur
  • Wetterkarte
  • Widgets
  • user-avatar
    Anmelden

    Stündliche Wetter Plebanivka

    Heute, 25 August, Sonntag

    Zeit Temperatur Niederschläge Wind Luftdruck Luftfeuchtigkeit
    00:00 +18°C° 0 mm 3 m/S 741 mmHg 71%
    01:00 +17°C° 0 mm 3 m/S 741 mmHg 70%
    02:00 +17°C° 0 mm 3 m/S 741 mmHg 69%
    03:00 +17°C° 0 mm 3 m/S 741 mmHg 68%
    04:00 +16°C° 0 mm 3 m/S 741 mmHg 67%
    05:00 +16°C° 0 mm 3 m/S 741 mmHg 67%
    06:00 +18°C° 0 mm 3 m/S 741 mmHg 64%
    07:00 +19°C° 0 mm 3 m/S 741 mmHg 61%
    08:00 +20°C° 0 mm 3 m/S 742 mmHg 59%
    09:00 +22°C° 0 mm 3 m/S 742 mmHg 55%
    10:00 +25°C° 0 mm 3 m/S 742 mmHg 50%
    11:00 +27°C° 0 mm 3 m/S 742 mmHg 46%
    12:00 +28°C° 0 mm 3 m/S 742 mmHg 43%
    13:00 +29°C° 0 mm 3 m/S 742 mmHg 40%
    14:00 +29°C° 0 mm 3 m/S 741 mmHg 37%
    15:00 +29°C° 0 mm 3 m/S 741 mmHg 38%
    16:00 +29°C° 0 mm 4 m/S 741 mmHg 38%
    17:00 +28°C° 0 mm 4 m/S 741 mmHg 39%
    18:00 +26°C° 0 mm 4 m/S 741 mmHg 44%
    19:00 +23°C° 0 mm 4 m/S 741 mmHg 49%
    20:00 +21°C° 0 mm 5 m/S 741 mmHg 54%
    21:00 +20°C° 0 mm 4 m/S 741 mmHg 53%
    22:00 +19°C° 0 mm 4 m/S 741 mmHg 53%
    23:00 +18°C° 0 mm 3 m/S 741 mmHg 52%

    Morgen, 26 August, Montag

    Zeit Temperatur Niederschläge Wind Luftdruck Luftfeuchtigkeit
    00:00 +18°C° 0 mm 3 m/S 741 mmHg 53%
    01:00 +17°C° 0 mm 3 m/S 741 mmHg 54%
    02:00 +17°C° 0 mm 3 m/S 741 mmHg 54%
    03:00 +16°C° 0 mm 3 m/S 741 mmHg 56%
    04:00 +16°C° 0 mm 2 m/S 741 mmHg 58%
    05:00 +15°C° 0 mm 2 m/S 741 mmHg 59%
    06:00 +17°C° 0 mm 2 m/S 741 mmHg 57%
    07:00 +19°C° 0 mm 3 m/S 741 mmHg 54%
    08:00 +21°C° 0 mm 3 m/S 742 mmHg 51%
    09:00 +24°C° 0 mm 3 m/S 742 mmHg 46%
    10:00 +26°C° 0 mm 3 m/S 742 mmHg 40%
    11:00 +28°C° 0 mm 4 m/S 742 mmHg 35%
    12:00 +29°C° 0 mm 3 m/S 742 mmHg 33%
    13:00 +29°C° 0 mm 3 m/S 741 mmHg 30%
    14:00 +30°C° 0 mm 3 m/S 741 mmHg 28%
    15:00 +30°C° 0 mm 3 m/S 741 mmHg 29%
    16:00 +30°C° 0 mm 3 m/S 740 mmHg 30%
    17:00 +29°C° 0 mm 3 m/S 740 mmHg 31%
    18:00 +27°C° 0 mm 3 m/S 740 mmHg 36%
    19:00 +25°C° 0 mm 3 m/S 740 mmHg 42%
    20:00 +22°C° 0 mm 3 m/S 740 mmHg 47%
    21:00 +21°C° 0 mm 3 m/S 740 mmHg 53%
    22:00 +20°C° 0 mm 3 m/S 740 mmHg 59%
    23:00 +19°C° 0 mm 3 m/S 740 mmHg 65%

    übermorgen, 27 August, Dienstag

    Zeit Temperatur Niederschläge Wind Luftdruck Luftfeuchtigkeit
    00:00 +18°C° 0 mm 3 m/S 740 mmHg 67%
    01:00 +18°C° 0 mm 3 m/S 740 mmHg 68%
    02:00 +18°C° 0 mm 2 m/S 740 mmHg 69%
    03:00 +17°C° 0 mm 2 m/S 740 mmHg 69%
    04:00 +17°C° 0 mm 2 m/S 740 mmHg 69%
    05:00 +16°C° 0 mm 2 m/S 740 mmHg 70%
    06:00 +18°C° 0 mm 2 m/S 740 mmHg 63%
    07:00 +20°C° 0 mm 2 m/S 740 mmHg 57%
    08:00 +23°C° 0 mm 2 m/S 740 mmHg 51%
    09:00 +25°C° 0 mm 2 m/S 740 mmHg 46%
    10:00 +27°C° 0 mm 2 m/S 740 mmHg 42%
    11:00 +29°C° 0 mm 3 m/S 741 mmHg 37%
    12:00 +29°C° 0 mm 3 m/S 740 mmHg 35%
    13:00 +30°C° 0 mm 3 m/S 740 mmHg 33%
    14:00 +30°C° 0 mm 3 m/S 740 mmHg 31%
    15:00 +30°C° 0 mm 3 m/S 740 mmHg 32%
    16:00 +30°C° 0 mm 3 m/S 740 mmHg 33%
    17:00 +30°C° 0 mm 3 m/S 739 mmHg 34%
    18:00 +27°C° 0 mm 3 m/S 739 mmHg 41%
    19:00 +25°C° 0 mm 3 m/S 739 mmHg 48%
    20:00 +21°C° 0 mm 3 m/S 739 mmHg 55%
    21:00 +20°C° 0 mm 3 m/S 740 mmHg 57%
    22:00 +20°C° 0 mm 3 m/S 740 mmHg 59%
    23:00 +19°C° 0 mm 3 m/S 740 mmHg 62%

    28 August, Mittwoch

    Zeit Temperatur Niederschläge Wind Luftdruck Luftfeuchtigkeit
    00:00 +18°C° 0 mm 2 m/S 740 mmHg 64%
    01:00 +17°C° 0 mm 2 m/S 740 mmHg 65%
    02:00 +17°C° 0 mm 2 m/S 740 mmHg 67%
    03:00 +16°C° 0 mm 2 m/S 740 mmHg 69%
    04:00 +16°C° 0 mm 2 m/S 740 mmHg 71%
    05:00 +16°C° 0 mm 2 m/S 740 mmHg 73%
    06:00 +17°C° 0 mm 2 m/S 740 mmHg 67%
    07:00 +19°C° 0 mm 2 m/S 740 mmHg 61%
    08:00 +21°C° 0 mm 2 m/S 740 mmHg 55%
    09:00 +24°C° 0 mm 2 m/S 740 mmHg 50%
    10:00 +26°C° 0 mm 2 m/S 740 mmHg 45%
    11:00 +27°C° 0 mm 3 m/S 740 mmHg 39%
    12:00 +28°C° 0 mm 3 m/S 740 mmHg 37%
    13:00 +29°C° 0 mm 3 m/S 739 mmHg 34%
    14:00 +30°C° 0 mm 3 m/S 739 mmHg 31%
    15:00 +29°C° 0 mm 3 m/S 739 mmHg 33%
    16:00 +29°C° 0 mm 3 m/S 739 mmHg 34%
    17:00 +29°C° 0 mm 3 m/S 739 mmHg 35%
    18:00 +26°C° 0 mm 4 m/S 739 mmHg 43%
    19:00 +23°C° 0 mm 4 m/S 738 mmHg 51%
    20:00 +21°C° 0 mm 4 m/S 738 mmHg 59%
    21:00 +20°C° 0 mm 4 m/S 738 mmHg 60%
    22:00 +19°C° 0 mm 4 m/S 739 mmHg 62%
    23:00 +19°C° 0 mm 4 m/S 739 mmHg 63%

    29 August, Donnerstag

    Zeit Temperatur Niederschläge Wind Luftdruck Luftfeuchtigkeit
    00:00 +18°C° 0 mm 3 m/S 739 mmHg 64%
    01:00 +17°C° 0 mm 3 m/S 738 mmHg 66%
    02:00 +16°C° 0 mm 3 m/S 738 mmHg 67%
    03:00 +16°C° 0 mm 3 m/S 738 mmHg 68%
    04:00 +14°C° 0 mm 3 m/S 738 mmHg 69%
    05:00 +13°C° 0 mm 3 m/S 738 mmHg 70%
    06:00 +16°C° 0 mm 3 m/S 738 mmHg 64%
    07:00 +18°C° 0 mm 4 m/S 739 mmHg 59%
    08:00 +19°C° 0 mm 4 m/S 739 mmHg 54%
    09:00 +21°C° 0 mm 4 m/S 739 mmHg 49%
    10:00 +23°C° 0 mm 4 m/S 739 mmHg 43%
    11:00 +26°C° 0 mm 4 m/S 739 mmHg 38%
    12:00 +26°C° 0 mm 4 m/S 739 mmHg 36%
    13:00 +27°C° 0 mm 4 m/S 739 mmHg 34%
    14:00 +27°C° 0 mm 4 m/S 738 mmHg 32%
    15:00 +26°C° 0 mm 4 m/S 738 mmHg 33%
    16:00 +26°C° 0 mm 4 m/S 738 mmHg 33%
    17:00 +25°C° 0 mm 4 m/S 738 mmHg 33%
    18:00 +22°C° 0 mm 4 m/S 738 mmHg 36%
    19:00 +20°C° 0 mm 4 m/S 738 mmHg 39%
    20:00 +18°C° 0 mm 4 m/S 738 mmHg 43%
    21:00 +17°C° 0 mm 4 m/S 739 mmHg 42%
    22:00 +15°C° 0 mm 4 m/S 739 mmHg 42%
    23:00 +14°C° 0 mm 4 m/S 739 mmHg 42%

    30 August, Freitag

    Zeit Temperatur Niederschläge Wind Luftdruck Luftfeuchtigkeit
    00:00 +13°C° 0 mm 4 m/S 739 mmHg 44%
    01:00 +12°C° 0 mm 3 m/S 739 mmHg 45%
    02:00 +11°C° 0 mm 3 m/S 739 mmHg 47%
    03:00 +11°C° 0 mm 3 m/S 739 mmHg 50%
    04:00 +10°C° 0 mm 3 m/S 739 mmHg 53%
    05:00 +10°C° 0 mm 3 m/S 739 mmHg 55%
    06:00 +11°C° 0 mm 3 m/S 739 mmHg 52%
    07:00 +13°C° 0 mm 3 m/S 740 mmHg 48%
    08:00 +16°C° 0 mm 3 m/S 740 mmHg 45%
    09:00 +18°C° 0 mm 3 m/S 740 mmHg 39%
    10:00 +20°C° 0 mm 3 m/S 740 mmHg 33%
    11:00 +22°C° 0 mm 3 m/S 740 mmHg 28%
    12:00 +24°C° 0 mm 3 m/S 740 mmHg 26%
    13:00 +25°C° 0 mm 3 m/S 740 mmHg 24%
    14:00 +26°C° 0 mm 3 m/S 740 mmHg 22%
    15:00 +25°C° 0 mm 3 m/S 739 mmHg 23%
    16:00 +25°C° 0 mm 3 m/S 739 mmHg 24%
    17:00 +25°C° 0 mm 3 m/S 739 mmHg 24%
    18:00 +22°C° 0 mm 3 m/S 739 mmHg 29%
    19:00 +19°C° 0 mm 3 m/S 739 mmHg 34%
    20:00 +17°C° 0 mm 3 m/S 739 mmHg 39%
    21:00 +15°C° 0 mm 4 m/S 739 mmHg 40%
    22:00 +14°C° 0 mm 4 m/S 739 mmHg 41%
    23:00 +13°C° 0 mm 4 m/S 739 mmHg 41%
    Mehr zeigen